[[{"header":{"parameterUnit":"m.s-1","parameterCategory":1,"la1":30.2992,"la2":30.254,"lo1":-89.0895,"lo2":-89.0443,"dy":0.0025,"dx":0.0025,"nx":19,"ny":19,"refTime":"2026-03-26T03:00:00:Z","depth":0,"parameterNumber":2,"parameterNumberName":"U-component_of_WINDS"},"data":[0,0,0,1.2381,1.2379,1.2272,1.2271,1.2132,1.2131,0,0,0,0,0,0,0,0,0,0,0,1.2412,1.2411,1.2381,1.2378,1.2272,1.2271,1.2133,1.2131,0,0,0,0,0,0,0,0,0,0,0,1.2413,1.2412,1.241,1.2378,1.2272,1.2271,1.2133,1.2214,0,0,0,0,0,0,0,0,0,0,1.2318,1.2347,1.2412,1.241,1.2377,1.2272,1.2271,1.2218,1.2209,1.218,0,1.2155,0,1.2141,1.2122,1.2121,0,0,0,1.2378,1.2355,1.2326,1.241,1.2376,1.2272,1.232,1.2213,1.2203,1.2168,1.2153,1.2148,1.2139,1.2121,1.212,1.1957,1.1956,0,0,1.2384,1.2393,1.2333,1.232,1.2337,1.2323,1.2317,1.2207,1.2191,1.2153,1.2145,1.2137,1.212,1.2119,1.1958,1.1957,0,0,0,1.2401,1.2397,1.2371,1.2325,1.2306,1.232,1.2312,1.2196,1.2187,1.2144,1.2135,1.2119,1.2117,1.1959,1.1957,1.1929,0,0,0,1.2405,1.2407,1.2374,1.2378,1.2308,1.225,1.2304,1.2194,1.2182,1.2136,1.2119,1.2116,1.1959,1.1958,1.1931,1.1914,0,0,0,1.2419,1.2408,1.2393,1.2378,1.2333,1.2251,1.2236,1.2191,1.2176,1.2121,1.2116,1.196,1.1958,1.1934,1.1918,1.1874,0,0,0,1.2437,1.2368,1.2393,1.2312,1.2334,1.2235,1.2237,1.2162,1.2112,1.2118,1.1959,1.1958,1.1934,1.192,1.1876,1.1839,1.1824,0,0,1.2355,1.2359,1.2311,1.2329,1.2229,1.225,1.2145,1.209,1.2076,1.1997,1.1993,1.1931,1.1918,1.1874,1.1737,1.1725,0,0,0,1.2287,1.2253,1.2225,1.2178,1.2135,1.2096,1.2057,1.2036,1.1969,1.2038,1.1902,1.1895,1.1869,1.185,1.184,1.1818,1.1949,1.195,1.195,1.2183,1.2171,1.2091,1.2065,1.2019,1.1979,1.1941,1.1906,1.1906,1.1874,1.1851,1.1769,1.1748,1.1741,1.1717,1.183,1.183,1.1829,1.1829,1.2062,1.2012,1.2014,1.1938,1.1924,1.1859,1.1818,1.182,1.1757,1.1786,1.1762,1.1795,1.1728,1.1707,1.1827,1.1827,1.1828,1.1828,1.1828,1.1993,1.1967,1.1944,1.1875,1.1822,1.1798,1.1738,1.1727,1.1717,1.1694,1.1668,1.1668,1.1668,1.1682,1.1682,1.1681,1.1681,1.1681,1.1681,1.193,1.1906,1.1857,1.1806,1.1774,1.1731,1.1691,1.1659,1.1621,1.1618,1.1617,1.162,1.1724,1.1751,1.1676,1.1677,1.1678,1.1678,1.1678,1.1813,1.1838,1.1763,1.1732,1.1671,1.162,1.1607,1.1543,1.1515,1.1486,1.1493,1.1572,1.1575,1.1582,1.1604,1.1496,1.1496,1.1496,1.1496,1.1755,1.1756,1.1677,1.1628,1.1578,1.1559,1.1473,1.144,1.141,1.1392,1.1405,1.1433,1.1442,1.144,1.145,1.1471,1.1332,1.1331,1.1331,1.1683,1.1678,1.1608,1.1581,1.1532,1.1491,1.141,1.1352,1.1322,1.1324,1.1377,1.1384,1.1429,1.1444,1.1448,1.1466,1.1503,0,0]},{"header":{"parameterUnit":"m.s-1","parameterCategory":1,"la1":30.2992,"la2":30.254,"lo1":-89.0895,"lo2":-89.0443,"dy":0.0025,"dx":0.0025,"nx":19,"ny":19,"refTime":"2026-03-26T03:00:00:Z","depth":0,"parameterNumber":3,"parameterNumberName":"V-component_of_WINDS"},"data":[0,0,0,0.7917,0.7919,0.8059,0.8059,0.8212,0.8213,0,0,0,0,0,0,0,0,0,0,0,0.7861,0.7861,0.7917,0.792,0.8059,0.8059,0.8212,0.8213,0,0,0,0,0,0,0,0,0,0,0,0.786,0.7861,0.7862,0.792,0.8058,0.8059,0.8211,0.8115,0,0,0,0,0,0,0,0,0,0,0.7985,0.7919,0.7861,0.7862,0.7921,0.8058,0.806,0.8111,0.8121,0.8138,0,0.8149,0,0.8183,0.8222,0.8222,0,0,0,0.7931,0.791,0.7961,0.7862,0.7922,0.8058,0.7999,0.8117,0.8129,0.8151,0.8152,0.8158,0.8186,0.8223,0.8223,0.8277,0.8277,0,0,0.7923,0.7878,0.7953,0.7967,0.7944,0.7995,0.8003,0.8125,0.8122,0.8152,0.8162,0.8188,0.8223,0.8224,0.8278,0.8277,0,0,0,0.7894,0.7872,0.7921,0.796,0.7987,0.7998,0.8008,0.8117,0.8136,0.8164,0.819,0.8224,0.8226,0.8278,0.8278,0.8217,0,0,0,0.7889,0.7855,0.7917,0.789,0.7984,0.8054,0.7997,0.8128,0.8143,0.8189,0.8224,0.8227,0.8279,0.8278,0.8219,0.8196,0,0,0,0.7857,0.7851,0.7866,0.7887,0.7946,0.8053,0.808,0.8132,0.8158,0.8222,0.8227,0.8279,0.8278,0.8221,0.82,0.8194,0,0,0,0.7809,0.7814,0.7864,0.7879,0.7944,0.8014,0.808,0.8135,0.8183,0.8225,0.8278,0.8278,0.8222,0.8202,0.8196,0.8179,0.8168,0,0,0.7789,0.781,0.7822,0.7871,0.792,0.7997,0.8038,0.8126,0.8175,0.824,0.8242,0.8218,0.82,0.8194,0.8128,0.8119,0,0,0,0.78,0.7808,0.7831,0.7873,0.7938,0.7991,0.8078,0.8109,0.8166,0.8199,0.8218,0.8208,0.8206,0.82,0.8193,0.8193,0.8274,0.8274,0.8274,0.7708,0.7767,0.7789,0.7863,0.7903,0.7989,0.8026,0.8084,0.8136,0.8138,0.8158,0.811,0.8101,0.8096,0.8095,0.8156,0.8155,0.8155,0.8155,0.7682,0.7701,0.7764,0.7808,0.7869,0.7908,0.7989,0.8023,0.8066,0.8102,0.8104,0.8135,0.8084,0.8087,0.8151,0.8152,0.8152,0.8153,0.8153,0.7627,0.7645,0.7682,0.7745,0.7787,0.7863,0.7899,0.7956,0.8009,0.8011,0.8035,0.8036,0.8042,0.8019,0.8018,0.8018,0.8018,0.8018,0.8018,0.7554,0.7597,0.762,0.7686,0.7717,0.7766,0.7849,0.7882,0.7933,0.7971,0.7971,0.8018,0.8069,0.8079,0.8016,0.8016,0.8016,0.8017,0.8017,0.7503,0.7522,0.7558,0.7589,0.7668,0.7702,0.7773,0.7833,0.7869,0.7884,0.7931,0.796,0.7985,0.7992,0.8,0.792,0.792,0.792,0.792,0.7454,0.7471,0.7517,0.7562,0.7613,0.7678,0.7714,0.7777,0.7846,0.787,0.789,0.7907,0.7911,0.7934,0.7941,0.795,0.7859,0.7859,0.7859,0.7424,0.7447,0.7468,0.7533,0.7597,0.7651,0.7685,0.7733,0.7815,0.7858,0.789,0.7892,0.792,0.7926,0.7968,0.7979,0.7996,0,0]}]]